THAICOM 8

Last updated on Wed Jul 02 2025 00:02:46 GMT+0000 (Coordinated Universal Time)

1 41552U 16031A 25182.58284505 -.00000118 00000+0 00000+0 0 9992 2 41552 0.0542 29.9306 0003057 30.5744 147.6561 1.00271467 33203
UTC large
Height (km)
Speed (km/s)
/
Latitude / Longitude
Inclination (degrees)
Orbital Period (minutes)
Azimuth
Elevation
Range (km)
Doppler Factor

Next 0 passes for location: London (51.5072 / 0.1276)

Sorry there are no passes over London.